Flag for Germany Weather past 2 weeks in Wittlich, Rhineland-Palatinate, Germany

Now
91 °F

Passing clouds.


Feels Like: 89 °F
Forecast: 71 / 91 °F
Wind: 3 mph from Southwest

Location: Spangdahlem

Current Time: Jul 4, 2015 at 5:36:06 PM

Latest Report: Jul 4, 2015 at 4:58 PM


Visibility: N/A

Pressure: 30.05 "Hg

Humidity: 30%

Dew point: 55 °F

Location of WittlichLocation

Historic Weather in Wittlich — Graph

°F

Wittlich temperature yesterday

Maximum temperature yesterday: 92 °F (at 4:58 PM)
Minimum temperature yesterday: 69 °F (at 6:58 AM)
Average temperature yesterday: 81 °F

Past Weeks' High & Low Weather Summary

 TemperatureHumidityPressure
High97 °F (Jul 2, 4:58 PM)100% (Jun 21, 5:00 AM)30.20 "Hg (Jun 21, 5:00 AM)
Low44 °F (Jun 23, 2:58 AM)27% (Jul 2, 4:58 PM)29.66 "Hg (Jun 22, 9:58 PM)
Average66 °F67%30.05 "Hg
* Reported Jun 19 3:58 PM — Jul 4 3:58 PM, Wittlich, Weather by CustomWeather, © 2015

Note: Actual official high and low records may vary slightly from our data, if they occured in-between our weather recording intervals... More about our weather records

Advertising

Wittlich weather history for previous 24 hours

 ConditionsComfort  
Time TempWeatherWind HumidityBarometerVisibility
3:58 PM
Sat, Jul 4
95 °FSunny.2 mph32%30.03 "HgN/A
2:58 PM95 °FSunny.1 mph32%30.03 "HgN/A
1:58 PM93 °FSunny.6 mph34%30.03 "HgN/A
12:58 PM91 °FSunny.2 mph36%30.03 "HgN/A
11:58 AM89 °FSunny.6 mph44%30.04 "HgN/A
10:58 AM86 °FSunny.5 mph47%30.05 "HgN/A
9:58 AM84 °FSunny.10 mph47%30.04 "HgN/A
8:58 AM82 °FSunny.12 mph52%30.03 "HgN/A
7:58 AM77 °FSunny.2 mph65%30.03 "HgN/A
6:58 AM73 °FSunny.6 mph74%30.02 "HgN/A
5:58 AM71 °FClear.6 mph81%30.03 "HgN/A
4:58 AM73 °FClear.5 mph74%30.03 "HgN/A
3:58 AM75 °FClear.8 mph69%30.03 "HgN/A
2:58 AM76 °FClear.7 mph71%30.05 "HgN/A
1:58 AM77 °FClear.6 mph69%30.06 "HgN/A
12:58 AM79 °FPassing clouds.8 mph65%30.07 "HgN/A
11:58 PM
Fri, Jul 3
80 °FClear.8 mph62%30.09 "HgN/A
10:58 PM81 °FClear.7 mph57%30.10 "HgN/A
9:58 PM82 °FSunny.7 mph51%30.10 "HgN/A
8:58 PM86 °FSunny.5 mph45%30.10 "HgN/A
7:58 PM89 °FSunny.2 mph40%30.10 "HgN/A
6:58 PM91 °FSunny.No wind30%30.10 "HgN/A
5:58 PM92 °FSunny.6 mph31%30.10 "HgN/A
Weather by CustomWeather, © 2015

See weather overviewHow to use our weather pages